Météo par heure à Jurandow

Ce jour, 17 Juin, Jeudi

Heure Température Précipitation Vent Pression Humidité
00:00 +16°C° 0 mm 2 m/s 753 mmHg 80%
01:00 +15°C° 0 mm 2 m/s 754 mmHg 80%
02:00 +15°C° 0 mm 2 m/s 753 mmHg 80%
03:00 +15°C° 0 mm 2 m/s 753 mmHg 80%
04:00 +15°C° 0 mm 1 m/s 753 mmHg 80%
05:00 +16°C° 0 mm 2 m/s 754 mmHg 75%
06:00 +18°C° 0 mm 2 m/s 754 mmHg 70%
07:00 +20°C° 0 mm 2 m/s 754 mmHg 64%
08:00 +21°C° 0 mm 3 m/s 754 mmHg 59%
09:00 +24°C° 0 mm 3 m/s 754 mmHg 55%
10:00 +25°C° 0 mm 3 m/s 755 mmHg 50%
11:00 +26°C° 0 mm 3 m/s 755 mmHg 46%
12:00 +26°C° 0 mm 3 m/s 754 mmHg 43%
13:00 +27°C° 0 mm 3 m/s 754 mmHg 40%
14:00 +27°C° 0 mm 3 m/s 754 mmHg 41%
15:00 +27°C° 0 mm 3 m/s 754 mmHg 42%
16:00 +27°C° 0 mm 4 m/s 754 mmHg 43%
17:00 +25°C° 0 mm 3 m/s 754 mmHg 51%
18:00 +24°C° 0 mm 3 m/s 754 mmHg 59%
19:00 +21°C° 0 mm 2 m/s 754 mmHg 67%
20:00 +20°C° 0 mm 3 m/s 754 mmHg 69%
21:00 +19°C° 0 mm 3 m/s 754 mmHg 71%
22:00 +18°C° 0 mm 3 m/s 754 mmHg 73%
23:00 +17°C° 0 mm 3 m/s 754 mmHg 75%

Demain, 18 Juin, Vendredi

Heure Température Précipitation Vent Pression Humidité
00:00 +17°C° 0 mm 2 m/s 754 mmHg 77%
01:00 +17°C° 0 mm 2 m/s 754 mmHg 79%
02:00 +16°C° 0 mm 2 m/s 754 mmHg 81%
03:00 +16°C° 0 mm 2 m/s 754 mmHg 84%
04:00 +16°C° 0 mm 2 m/s 754 mmHg 86%
05:00 +18°C° 0 mm 3 m/s 754 mmHg 81%
06:00 +20°C° 0 mm 3 m/s 754 mmHg 76%
07:00 +22°C° 0 mm 4 m/s 754 mmHg 71%
08:00 +25°C° 0 mm 4 m/s 754 mmHg 66%
09:00 +26°C° 0 mm 5 m/s 754 mmHg 60%
10:00 +28°C° 0 mm 5 m/s 754 mmHg 55%
11:00 +28°C° 0 mm 5 m/s 754 mmHg 53%
12:00 +29°C° 0 mm 5 m/s 753 mmHg 51%
13:00 +29°C° 0 mm 5 m/s 753 mmHg 49%
14:00 +29°C° 0 mm 5 m/s 753 mmHg 50%
15:00 +29°C° 0 mm 5 m/s 753 mmHg 50%
16:00 +29°C° 0 mm 5 m/s 753 mmHg 51%
17:00 +27°C° 0 mm 4 m/s 753 mmHg 58%
18:00 +26°C° 0 mm 3 m/s 753 mmHg 65%
19:00 +25°C° 0 mm 3 m/s 753 mmHg 72%
20:00 +22°C° 0 mm 3 m/s 753 mmHg 77%
21:00 +21°C° 0 mm 3 m/s 753 mmHg 82%
22:00 +20°C° 0 mm 3 m/s 753 mmHg 86%
23:00 +19°C° 0 mm 3 m/s 753 mmHg 87%

Après-demain, 19 Juin, Samedi

Heure Température Précipitation Vent Pression Humidité
00:00 +19°C° 0 mm 3 m/s 753 mmHg 88%
01:00 +18°C° 0 mm 3 m/s 753 mmHg 89%
02:00 +18°C° 0 mm 3 m/s 753 mmHg 90%
03:00 +18°C° 0 mm 3 m/s 753 mmHg 92%
04:00 +18°C° 0 mm 3 m/s 753 mmHg 93%
05:00 +20°C° 0 mm 3 m/s 753 mmHg 87%
06:00 +21°C° 0 mm 4 m/s 753 mmHg 81%
07:00 +23°C° 0 mm 4 m/s 753 mmHg 75%
08:00 +25°C° 0 mm 5 m/s 753 mmHg 69%
09:00 +27°C° 0 mm 5 m/s 753 mmHg 63%
10:00 +28°C° 0 mm 5 m/s 752 mmHg 57%
11:00 +29°C° 0 mm 5 m/s 752 mmHg 55%
12:00 +29°C° 0 mm 5 m/s 752 mmHg 53%
13:00 +30°C° 0 mm 5 m/s 752 mmHg 50%
14:00 +30°C° 0 mm 5 m/s 751 mmHg 51%
15:00 +30°C° 0 mm 5 m/s 751 mmHg 51%
16:00 +30°C° 0 mm 5 m/s 751 mmHg 52%
17:00 +29°C° 0 mm 4 m/s 751 mmHg 59%
18:00 +27°C° 0 mm 4 m/s 751 mmHg 66%
19:00 +26°C° 0 mm 3 m/s 751 mmHg 73%
20:00 +24°C° 0 mm 3 m/s 751 mmHg 77%
21:00 +22°C° 0 mm 3 m/s 751 mmHg 82%
22:00 +21°C° 0 mm 3 m/s 751 mmHg 87%
23:00 +20°C° 0 mm 3 m/s 751 mmHg 89%

20 Juin, Dimanche

Heure Température Précipitation Vent Pression Humidité
00:00 +20°C° 0 mm 2 m/s 751 mmHg 90%
01:00 +19°C° 0 mm 2 m/s 751 mmHg 92%
02:00 +19°C° 0 mm 2 m/s 751 mmHg 92%
03:00 +18°C° 0 mm 2 m/s 751 mmHg 92%
04:00 +18°C° 0 mm 2 m/s 751 mmHg 93%
05:00 +20°C° 0 mm 3 m/s 751 mmHg 86%
06:00 +21°C° 0 mm 3 m/s 751 mmHg 79%
07:00 +23°C° 0 mm 4 m/s 751 mmHg 73%
08:00 +25°C° 0 mm 4 m/s 751 mmHg 68%
09:00 +26°C° 0 mm 5 m/s 750 mmHg 63%
10:00 +28°C° 0 mm 5 m/s 750 mmHg 58%
11:00 +28°C° 0 mm 5 m/s 750 mmHg 55%
12:00 +29°C° 0 mm 5 m/s 750 mmHg 53%
13:00 +29°C° 0 mm 5 m/s 749 mmHg 50%
14:00 +29°C° 0 mm 5 m/s 749 mmHg 50%
15:00 +30°C° 0 mm 5 m/s 749 mmHg 50%
16:00 +30°C° 0 mm 5 m/s 748 mmHg 50%
17:00 +28°C° 0 mm 4 m/s 748 mmHg 56%
18:00 +27°C° 0 mm 4 m/s 748 mmHg 63%
19:00 +26°C° 0 mm 4 m/s 748 mmHg 70%
20:00 +25°C° 0 mm 4 m/s 748 mmHg 74%
21:00 +22°C° 0 mm 4 m/s 748 mmHg 79%
22:00 +21°C° 0 mm 4 m/s 748 mmHg 84%
23:00 +21°C° 0 mm 3 m/s 748 mmHg 87%

21 Juin, Lundi

Heure Température Précipitation Vent Pression Humidité
00:00 +20°C° 0 mm 3 m/s 748 mmHg 90%
01:00 +19°C° 0 mm 3 m/s 747 mmHg 94%
02:00 +19°C° 0 mm 3 m/s 747 mmHg 94%
03:00 +19°C° 0 mm 3 m/s 747 mmHg 94%
04:00 +19°C° 0 mm 3 m/s 747 mmHg 94%
05:00 +21°C° 0 mm 4 m/s 747 mmHg 87%
06:00 +22°C° 0 mm 5 m/s 747 mmHg 79%
07:00 +25°C° 0 mm 5 m/s 747 mmHg 71%
08:00 +26°C° 0 mm 5 m/s 747 mmHg 65%
09:00 +27°C° 0 mm 6 m/s 747 mmHg 59%
10:00 +28°C° 0 mm 6 m/s 747 mmHg 52%
11:00 +29°C° 0 mm 6 m/s 747 mmHg 52%
12:00 +29°C° 0 mm 5 m/s 746 mmHg 52%
13:00 +30°C° 0 mm 5 m/s 746 mmHg 51%
14:00 +29°C° 0 mm 5 m/s 746 mmHg 53%
15:00 +29°C° 0 mm 5 m/s 746 mmHg 54%
16:00 +29°C° 0 mm 5 m/s 746 mmHg 55%
17:00 +28°C° 0 mm 4 m/s 746 mmHg 60%
18:00 +27°C° 0 mm 4 m/s 746 mmHg 66%
19:00 +26°C° 0 mm 3 m/s 745 mmHg 71%
20:00 +25°C° 0 mm 3 m/s 745 mmHg 76%
21:00 +22°C° 0 mm 3 m/s 745 mmHg 81%
22:00 +21°C° 0 mm 3 m/s 745 mmHg 86%
23:00 +21°C° 0 mm 3 m/s 745 mmHg 88%

22 Juin, Mardi

Heure Température Précipitation Vent Pression Humidité
00:00 +20°C° 0 mm 3 m/s 745 mmHg 90%
01:00 +20°C° 0 mm 3 m/s 745 mmHg 92%
02:00 +19°C° 0 mm 3 m/s 745 mmHg 92%
03:00 +19°C° 0 mm 3 m/s 745 mmHg 92%
04:00 +19°C° 0 mm 3 m/s 745 mmHg 92%
05:00 +21°C° 0 mm 4 m/s 744 mmHg 85%
06:00 +23°C° 0 mm 4 m/s 744 mmHg 79%
07:00 +26°C° 0 mm 5 m/s 744 mmHg 72%
08:00 +27°C° 0 mm 5 m/s 744 mmHg 66%
09:00 +29°C° 0 mm 5 m/s 745 mmHg 60%
10:00 +30°C° 0 mm 5 m/s 745 mmHg 54%
11:00 +32°C° 0 mm 4 m/s 745 mmHg 50%
12:00 +33°C° 0 mm 4 m/s 745 mmHg 46%
13:00 +34°C° 0 mm 4 m/s 745 mmHg 42%
14:00 +30°C° 2.5 mm 5 m/s 745 mmHg 56%
15:00 +28°C° 2.5 mm 5 m/s 745 mmHg 70%
16:00 +24°C° 2.5 mm 6 m/s 745 mmHg 84%
17:00 +23°C° 3.1 mm 4 m/s 745 mmHg 87%
18:00 +22°C° 3.1 mm 3 m/s 746 mmHg 90%
19:00 +22°C° 3.1 mm 1 m/s 746 mmHg 93%
20:00 +21°C° 0.9 mm 1 m/s 746 mmHg 93%
21:00 +21°C° 0.9 mm 1 m/s 747 mmHg 94%
22:00 +21°C° 0.9 mm 1 m/s 747 mmHg 94%
23:00 +20°C° 0 mm 2 m/s 747 mmHg 94%
Voir plus

Nous avons besoin de votre consentement

Meteoprog et ses fournisseurs de services peuvent stocker et accéder à des données personnelles telles que des cookies, des identifiants d'appareils ou d'autres technologies similaires sur votre appareil et traiter ces données pour personnaliser le contenu et les publicités, ainsi que pour fournir des fonctionnalités de médias sociaux et analyser le trafic.

  • Stocker et/ou accéder à des informations sur votre appareil

    Des cookies, des identifiants d'appareils ou d'autres informations peuvent être stockés ou accessibles sur votre appareil aux fins indiquées ci-dessus.

  • Annonces et contenus personnalisés, mesure des annonces et des contenus, connaissance de l'audience et développement de produits

    Les annonces et le contenu peuvent être personnalisés en fonction d'un profil. D'autres données peuvent être ajoutées pour mieux personnaliser les annonces et le contenu. Les performances des publicités et du contenu peuvent être mesurées. Il est possible d'obtenir des informations sur le public qui a vu les publicités et le contenu. Ces données peuvent être utilisées pour développer ou améliorer l'expérience de l'utilisateur, les systèmes et les logiciels.

En cliquant sur "J'accepte", vous autorisez l'utilisation de cookies, des identifiants d'appareils, des balises web ou d'autres technologies similaires. Vos paramètres peuvent être modifiés dans le navigateur de votre appareil.

Dans certains cas, des intérêts légitimes peuvent être invoqués plutôt qu'un consentement. Vous pouvez en savoir plus à ce sujet dans notre Politique de confidentialité et de cookies.